Starlink 32881

operational
NORAD ID: 62997 Int'l Des: 2025-031 Owner: SPXS Country: US Constellation: starlink
LEOCIRCULAR

Über Starlink 32881

Beschreibung wird geladen...

Live-Position

3D-Globus wird geladen...

Nächste Überflüge

Höhenverlauf

Altitude vs Time

uPlot chart will show altitude changes over time

Zweizeiliger Elementsatz

1 62997U 25031S 26035.18688233 .00037225 00000-0 13545-2 0 9998
2 62997 43.0020 332.3461 0000524 19.3638 340.7233 15.27603186 55974
Epoch: 4. Feb. 2026 • Age: 16 hours

Aktueller Status

Höhe 485.8 km
Geschwindigkeit 7.63 km/s
Subsatellitenpunkt 42.62°N, 14.46°W
Startdatum 11. Feb. 2025
Alter 0.9 years
Typ internet

Technische Details

Klassifizierung Payload
Masse 730.00 kg
Trockenmasse 700.00 kg
Gesamtmasse 730.00 kg
Länge 0.30 m
Durchmesser 4.10 m
Spannweite 29.00 m
Form Box + pan
Hersteller SPXS
Bus-Typ Starlink V2M
Phasenstatus In Orbit
Besitzer/Staat SPXS/US

Große Konstellationen

Loading constellations...